COSMOS 2414

Satellite information

Favourite Embed

Satellite Type and Status

PAYLOADIN ORBIT

Key statistics

Satellite COSMOS 2414 at a glance.

Uptime

7474

Days in orbit

Revolutions

≈ 13.9

Per day

Orbit

LEO

Low Earth Orbit

Inclination

83.0

Latest

Satellite identification and parameters

Extended collection of information and parameters for COSMOS 2414.

Object identification

Identified? True

Debris? False

Object name: COSMOS 2414

International designator: 2005-002A

Object number (NORAD): 28521

Object ID (CCSDS): 28521

Country: COMMONWEALTH OF INDEPENDENT STATES (CIS)

Current information (Y/N): Y

RCS size: LARGE

Orbital parameters

Period: 103.755 minutes

Inclination: 82.9511 deg

SMA: 7314.21 km

Apoapsis: 964.662 km

Periapsis: 907.489 km

RAAN: 304.1164 deg

Eccentricy: 0.0039083

Argument of periapsis: 230.1172 deg

Mean anomaly: 129.6553 deg

Mean motion: 13.8787893 rev/day

Mean motion (dot): 0.00000046 rev/day2

B* drag term: 0.000025557 1/REarth

Two-line elements (TLE)

Creation date: July 8, 2025, 2:27 a.m.

Reference frame: TEME

Reference center: EARTH

Epoch: July 7, 2025, 6:59 p.m. UTC

TLE line 0: 0 COSMOS 2414

TLE line 1: 1 28521U 05002A 25188.79153263 .00000046 00000-0 25557-4 0 9993

TLE line 2: 2 28521 82.9511 304.1164 0039083 230.1172 129.6553 13.87878930 36042

Live tracking on map

Real-time ground track for satellite COSMOS 2414.

In-orbit conjunctions

There are no conjunctions computed for COSMOS 2414, at the moment. Check back to stay up to date, as we update our databases every day.

Go to all conjunctions

Associated space launch

Navigation satellite providing location information for the Tsiklon-B navigation system

COSMOS 2414 was lifted into orbit during the mission ‘Kosmos-3M | Parus 96’, on board a Kosmos-3M space rocket.

The launch took place on Jan. 20, 2005, 3 a.m. from 132/1 (132L).

For more information about the launch, click the button.

Launch to space Kosmos-3M | Parus 96
Kosmos-3M | Parus 96

Agency: N/A

Status: Launch Successful

Launch date: Jan. 20, 2005, 3 a.m. UTC

Rocket: Kosmos-3M

Launch pad: 132/1 (132L)

Location: Plesetsk Cosmodrome, Russian Federation

...

Latest news about this satellite

There are no fresh news available about this satellite. Check back as we update our databases every day.


Newsletter sign-up

Weekly statistics, charts and insights to help you stay on top of the space industry.